FW5236 Weather Reports


time (UTC)temp
F
wind
direction
speed
knots
gust
knots
rain 1hr
in
rain 24hr
in
rain mn
in
humidity
%
barometer
mb
20260507070029 56 35 0.0 1.7 0.00 0.00 0.00 77 1020.0
20260507064532 56 12 0.0 3.5 0.00 0.00 0.00 76 1020.1
20260507063031 57 28 0.0 3.5 0.00 0.00 0.00 76 1020.1
20260507061529 57 29 0.9 5.2 0.00 0.00 0.00 76 1020.2
20260507060030 57 20 0.9 4.3 0.00 0.00 0.00 76 1020.3
20260507053026 55 44 0.0 2.6 0.00 0.00 0.00 75 1020.6
20260507051529 56 4 0.0 0.9 0.00 0.00 0.00 72 1020.6
20260507043030 62 2 0.9 5.2 0.00 0.00 0.00 55 1020.3
20260507041528 62 1 1.7 6.1 0.00 0.00 0.00 55 1020.2
20260507040035 62 4 0.9 4.3 0.00 0.00 0.00 54 1020.2
20260507034531 62 23 0.9 4.3 0.00 0.00 0.00 56 1020.0
20260507033030 62 70 0.0 3.5 0.00 0.00 0.00 57 1019.9
20260507031531 63 54 0.9 4.3 0.00 0.00 0.00 57 1019.8
20260507030034 64 76 0.0 2.6 0.00 0.00 0.00 55 1019.8
20260507024530 64 77 0.9 3.5 0.00 0.00 0.00 54 1019.8
20260507023029 63 76 0.0 2.6 0.00 0.00 0.00 55 1019.7
20260507021533 64 139 0.0 3.5 0.00 0.00 0.00 55 1019.7
20260507020031 65 93 0.0 3.5 0.00 0.00 0.00 53 1019.7
20260507014528 65 81 0.0 2.6 0.00 0.00 0.00 52 1019.6
20260507011530 67 44 0.0 3.5 0.00 0.00 0.00 48 1019.5
20260507010030 68 38 0.9 4.3 0.00 0.00 0.00 46 1019.3
20260507004530 68 40 0.9 6.1 0.00 0.00 0.00 46 1019.2
20260507003105 69 33 0.0 3.5 0.00 0.00 0.00 45 1019.1
20260507001605 69 48 0.0 4.3 0.00 0.00 0.00 44 1019.1
20260507000031 70 43 0.9 4.3 0.00 0.00 0.00 43 1019.0
20260506234531 72 45 1.7 6.1 0.00 0.00 0.00 42 1018.8
20260506233029 72 42 2.6 9.6 0.00 0.00 0.00 42 1018.6
20260506231531 73 31 3.5 8.7 0.00 0.00 0.00 42 1018.5
20260506230029 71 25 4.3 12.2 0.00 0.00 0.00 43 1018.5
20260506221530 72 19 3.5 10.4 0.00 0.00 0.00 44 1019.1
20260506220031 73 27 1.7 9.6 0.00 0.00 0.00 43 1019.0
20260506214532 74 30 1.7 6.1 0.00 0.00 0.00 43 1018.8
20260506213029 74 35 1.7 6.1 0.00 0.00 0.00 43 1018.8
20260506211528 74 28 2.6 11.3 0.00 0.00 0.00 44 1018.9
20260506203146 73 28 2.6 8.7 0.00 0.00 0.00 47 1019.2
20260506201602 73 26 2.6 11.3 0.00 0.00 0.00 48 1019.1
20260506194532 71 37 2.6 7.0 0.00 0.00 0.00 50 1019.1
20260506193030 70 42 3.5 7.8 0.00 0.00 0.00 52 1019.1
20260506191531 70 52 3.5 8.7 0.00 0.00 0.00 54 1019.3
20260506190034 69 44 2.6 6.1 0.00 0.00 0.00 55 1019.4
20260506184529 68 46 3.5 13.9 0.00 0.00 0.00 56 1019.3
20260506183028 67 41 3.5 10.4 0.00 0.00 0.00 57 1019.3
20260506181529 68 44 3.5 8.7 0.00 0.00 0.00 57 1019.4
20260506180033 69 44 2.6 7.0 0.00 0.00 0.00 57 1019.4
20260506174528 69 44 1.7 7.8 0.00 0.00 0.00 58 1019.4
20260506171529 67 22 1.7 6.1 0.00 0.00 0.00 60 1019.3
20260506170108 66 28 1.7 6.1 0.00 0.00 0.00 61 1019.7
20260506164529 65 26 1.7 7.0 0.00 0.00 0.00 62 1020.0
20260506163030 64 33 2.6 9.6 0.00 0.00 0.00 63 1020.0
20260506161531 64 27 2.6 8.7 0.00 0.00 0.00 64 1019.9
20260506160145 63 34 2.6 7.8 0.00 0.00 0.00 65 1019.8
20260506154528 62 35 1.7 7.0 0.00 0.00 0.00 67 1019.6
20260506151531 60 60 1.7 7.0 0.00 0.00 0.00 72 1019.7
20260506150032 58 48 1.7 7.0 0.00 0.00 0.00 78 1019.8
20260506144530 54 259 0.0 3.5 0.00 0.00 0.00 83 1019.9
20260506143029 52 238 1.7 3.5 0.00 0.00 0.00 85 1019.8
20260506141530 52 266 0.9 3.5 0.00 0.00 0.00 87 1019.7
20260506140026 49 275 0.9 4.3 0.00 0.00 0.00 89 1019.5
20260506134535 48 242 2.6 6.1 0.00 0.00 0.00 90 1019.3
20260506133032 48 262 0.9 5.2 0.00 0.00 0.00 91 1019.2
20260506131531 47 273 0.9 3.5 0.00 0.00 0.00 91 1019.2
20260506130103 48 264 1.7 3.5 0.00 0.00 0.00 91 1018.9
20260506123032 46 254 1.7 4.3 0.00 0.00 0.00 92 1018.6
20260506121608 47 236 0.9 3.5 0.00 0.00 0.00 92 1018.6
20260506113030 46 244 1.7 4.3 0.00 0.00 0.00 91 1018.3
20260506111532 47 231 1.7 3.5 0.00 0.00 0.00 91 1018.2
20260506110030 47 227 1.7 2.6 0.00 0.00 0.00 91 1018.1
20260506104533 47 240 1.7 3.5 0.00 0.00 0.00 91 1018.0
20260506101605 48 237 1.7 3.5 0.00 0.00 0.00 91 1018.0
20260506093030 48 244 1.7 3.5 0.00 0.00 0.00 91 1017.8
20260506091531 49 239 0.9 3.5 0.00 0.00 0.00 91 1017.7
20260506090029 49 235 1.7 4.3 0.00 0.00 0.00 90 1017.7
20260506084530 50 242 0.9 3.5 0.00 0.00 0.00 90 1017.6
20260506083028 50 248 0.0 2.6 0.00 0.00 0.00 90 1017.5
20260506081530 50 227 0.9 1.7 0.00 0.00 0.00 89 1017.4
20260506073033 51 225 0.9 1.7 0.00 0.00 0.00 87 1017.0
20260506071646 52 225 0.9 1.7 0.00 0.00 0.00 87 1016.9